User: anonymous   Login
Location: South Range
(44.4886°N, 65.7879°W)
Time: 22:21:56
(UTC-03:00)
Language:

Iridium 56 - Orbit

View from above orbital plane
View from above orbital plane
View from above satellite
View from above satellite

Ground track
Ground track

The orbit data is extracted from the following two-line orbital elements,

1 25170U 98010B   16145.51520617  .00000036  00000-0  57884-5 0  9993
2 25170  86.3948 152.9647 0002476  96.0764 264.0714 14.34217877956053
Epoch (UTC): 24 May 2016 12:21:53
Eccentricity: 0.0002476
inclination: 86.3948°
perigee height: 776 km
apogee height: 779 km
right ascension of ascending node: 152.9647°
argument of perigee: 96.0764°
revolutions per day: 14.34217877
mean anomaly at epoch: 264.0714°
orbit number at epoch: 95605

The dashed part of the orbit path shows where the satellite is in the earth's shadow,  

DLR